Language: 


Des rapports , des résumés tant et plus, au choix de chacun....


Données Historiques de Météogheer
Journalier Rapport pour Novembre 24, 2017 Unitée:  Impériale    Métrique   Les deux
Suivant Jour »
Journalier Hebdomadaire Mensuel Annuel Sur mesure
  Max: Min: Moyenne:
Température: 54.5 °F 41.5 °F 46.4 °F
Point de rosée: 51.8 °F 42.8 °F 45.9 °F
Humidité: 98% 83% 96%
Vent: 8.1mph 0mph 1.2mph
Rafales: 10.3mph - -
Vent- - WSW
Pression: 29.9 in 29.7 in -
Pluie: 0.55 in    
Historical Graphs
 
 
Données tabulaires pour Novembre 24, 2017
Heure Température Point de rosée Pression Vent Vent Rafales Humidité Pluie Taux (Horaire) Conditions
00:00 47.8 °F 46.4 °F 29.7 in Calm   5.6 mph 90% 0 in
00:05 47.8 °F 46.4 °F 29.7 in Calm   4.9 mph 90% 0 in
00:15 47.8 °F 46.4 °F 29.7 in Calm   1.1 mph 89% 0 in
00:20 47.7 °F 44.6 °F 29.7 in Calm   1.1 mph 89% 0 in
00:21 47.7 °F 44.6 °F 29.7 in Calm   1.1 mph 89% 0 in
00:31 47.7 °F 44.6 °F 29.7 in Calm   3.6 mph 89% 0 in
00:36 47.5 °F 44.6 °F 29.7 in Calm   3.6 mph 89% 0 in
00:41 47.5 °F 44.6 °F 29.7 in Calm     89% 0 in
00:46 47.5 °F 44.6 °F 29.7 in Calm     90% 0 in
00:51 47.5 °F 44.6 °F 29.7 in Calm     90% 0 in
00:56 47.3 °F 44.6 °F 29.7 in Calm     90% 0 in
01:06 47.3 °F 46.4 °F 29.7 in Calm   3.6 mph 91% 0 in
01:11 47.3 °F 46.4 °F 29.7 in Calm   5.4 mph 91% 0 in
01:16 47.3 °F 46.4 °F 29.7 in South 3.4 mph 5.4 mph 92% 0 in
01:21 47.3 °F 46.4 °F 29.7 in SSW 1.3 mph 5.6 mph 93% 0 in
01:26 47.3 °F 46.4 °F 29.7 in Calm   5.6 mph 93% 0 in
01:36 47.3 °F 46.4 °F 29.7 in Calm   6.3 mph 94% 0.01 in
01:41 47.3 °F 46.4 °F 29.7 in Calm   6.3 mph 94% 0.01 in
01:51 47.1 °F 46.4 °F 29.7 in South 3.6 mph 6 mph 95% 0.02 in
01:56 47.1 °F 46.4 °F 29.7 in Calm   5.4 mph 95% 0.02 in
02:01 46.9 °F 46.4 °F 29.7 in Calm   5.4 mph 95% 0.02 in
02:06 46.9 °F 46.4 °F 29.7 in West 4.3 mph 4.7 mph 95% 0.02 in
02:11 46.9 °F 46.4 °F 29.7 in Calm   4.7 mph 95% 0.02 in
02:17 46.8 °F 46.4 °F 29.7 in Calm   4 mph 95% 0.03 in
02:22 46.8 °F 46.4 °F 29.7 in Calm   2.5 mph 96% 0.03 in
02:27 46.6 °F 46.4 °F 29.7 in Calm   1.1 mph 96% 0.03 in
02:32 46.6 °F 46.4 °F 29.7 in Calm     96% 0.03 in
02:52 46.4 °F 46.4 °F 29.7 in Calm     97% 0.01 in
02:57 46.4 °F 46.4 °F 29.7 in Calm     97% 0.01 in
03:07 46.2 °F 46.4 °F 29.7 in Calm     97% 0.02 in
03:12 46.2 °F 46.4 °F 29.7 in Calm     97% 0.03 in
03:17 46 °F 44.6 °F 29.7 in WSW 2 mph 2 mph 97% 0.02 in
03:22 46 °F 46.4 °F 29.7 in Calm   3.1 mph 98% 0.04 in
03:27 46 °F 46.4 °F 29.7 in Calm   3.1 mph 98% 0.06 in
03:32 46 °F 46.4 °F 29.7 in Calm   0.9 mph 98% 0.07 in
03:37 45.9 °F 46.4 °F 29.7 in Calm   0.9 mph 98% 0.09 in
03:42 45.9 °F 46.4 °F 29.7 in Calm     98% 0.09 in
03:47 45.9 °F 46.4 °F 29.7 in Calm     98% 0.1 in
03:52 45.9 °F 46.4 °F 29.7 in Calm     98% 0.1 in
03:57 45.9 °F 46.4 °F 29.7 in Calm     98% 0.11 in
04:02 45.9 °F 46.4 °F 29.7 in Calm     98% 0.11 in
04:13 45.7 °F 46.4 °F 29.7 in Calm     98% 0.11 in
04:15 45.7 °F 46.4 °F 29.7 in Calm     98% 0.12 in
04:20 45.7 °F 46.4 °F 29.7 in Calm   0.9 mph 98% 0.11 in
04:25 45.7 °F 46.4 °F 29.7 in Calm   0.9 mph 98% 0.12 in
04:30 45.7 °F 46.4 °F 29.7 in Calm     98% 0.12 in
04:31 45.7 °F 46.4 °F 29.7 in Calm     98% 0.11 in
04:37 45.7 °F 46.4 °F 29.7 in Calm     98% 0.1 in
04:42 45.7 °F 46.4 °F 29.7 in Calm     98% 0.11 in
04:47 45.7 °F 46.4 °F 29.7 in Calm   2.9 mph 98% 0.1 in
04:52 45.5 °F 46.4 °F 29.7 in Calm   2.9 mph 98% 0.1 in
04:57 45.3 °F 44.6 °F 29.7 in Calm   1.1 mph 98% 0.09 in
05:02 45.1 °F 44.6 °F 29.7 in Calm     98% 0.07 in
05:07 45.1 °F 44.6 °F 29.7 in Calm   2.5 mph 98% 0.06 in
05:12 45.3 °F 44.6 °F 29.7 in Calm   2.5 mph 98% 0.06 in
05:17 45.3 °F 44.6 °F 29.7 in NNW 2.2 mph 2.9 mph 98% 0.05 in
05:22 45.3 °F 44.6 °F 29.7 in Calm   5.4 mph 98% 0.03 in
05:32 45.5 °F 46.4 °F 29.7 in Calm   4 mph 98% 0.01 in
05:37 45.5 °F 46.4 °F 29.7 in Calm   4 mph 98% 0.01 in
05:42 45.5 °F 46.4 °F 29.7 in Calm   2.9 mph 98% 0 in
05:47 45.5 °F 46.4 °F 29.7 in Calm     98% 0 in
05:52 45.5 °F 46.4 °F 29.7 in Calm   2.2 mph 98% 0 in
05:57 45.5 °F 46.4 °F 29.7 in Calm   2.2 mph 98% 0 in
06:02 45.5 °F 46.4 °F 29.7 in Calm     98% 0 in
06:12 45.3 °F 44.6 °F 29.7 in Calm     98% 0 in
06:17 45.3 °F 44.6 °F 29.7 in Calm     98% 0 in
06:22 45.3 °F 44.6 °F 29.7 in Calm     98% 0 in
06:37 45.1 °F 44.6 °F 29.7 in Calm     98% 0 in
06:47 45 °F 44.6 °F 29.7 in Calm     98% 0 in
06:57 44.8 °F 44.6 °F 29.7 in Calm     98% 0 in
07:12 44.8 °F 44.6 °F 29.7 in Calm   2.7 mph 98% 0 in
07:17 44.8 °F 44.6 °F 29.7 in Calm     98% 0 in
07:22 44.8 °F 44.6 °F 29.7 in Calm     98% 0 in
07:27 44.8 °F 44.6 °F 29.7 in Calm     98% 0 in
07:48 44.8 °F 44.6 °F 29.7 in Calm     98% 0 in
07:58 44.8 °F 44.6 °F 29.7 in Calm   2.9 mph 98% 0 in
08:03 44.6 °F 44.6 °F 29.7 in Calm   2.9 mph 98% 0 in
08:13 44.6 °F 44.6 °F 29.8 in Calm   3.6 mph 98% 0 in
08:18 44.4 °F 44.6 °F 29.8 in Calm   3.4 mph 98% 0 in
08:23 44.4 °F 44.6 °F 29.8 in Calm   1.3 mph 98% 0 in
08:28 44.4 °F 44.6 °F 29.8 in Calm     98% 0 in
08:33 44.1 °F 44.6 °F 29.8 in Calm   2.9 mph 98% 0 in
08:38 43.9 °F 44.6 °F 29.8 in Calm   2.9 mph 98% 0 in
08:43 43.7 °F 44.6 °F 29.8 in Calm     98% 0 in
08:53 43.3 °F 42.8 °F 29.8 in Calm   3.1 mph 98% 0 in
08:58 43.2 °F 42.8 °F 29.8 in Calm   3.1 mph 98% 0 in
09:03 43.2 °F 42.8 °F 29.8 in Calm     98% 0 in
09:08 43.2 °F 42.8 °F 29.8 in Calm     98% 0 in
09:13 43.2 °F 42.8 °F 29.8 in Calm     98% 0 in
09:18 43.3 °F 42.8 °F 29.8 in Calm     98% 0 in
09:23 43.3 °F 42.8 °F 29.8 in Calm     98% 0 in
09:28 43.5 °F 42.8 °F 29.8 in Calm     98% 0 in
09:33 43.5 °F 42.8 °F 29.8 in Calm     98% 0 in
09:38 43.7 °F 44.6 °F 29.8 in Calm   2.5 mph 98% 0 in
09:43 44.2 °F 44.6 °F 29.8 in West 4 mph 4 mph 98% 0 in
09:48 44.8 °F 44.6 °F 29.8 in Calm   4 mph 98% 0 in
09:58 45.5 °F 46.4 °F 29.8 in Calm   3.1 mph 98% 0 in
10:03 45.7 °F 46.4 °F 29.8 in Calm   3.1 mph 98% 0 in
10:08 46 °F 46.4 °F 29.8 in Calm     98% 0 in
10:13 46.4 °F 46.4 °F 29.8 in Calm     98% 0 in
10:18 46.8 °F 46.4 °F 29.8 in Calm   4 mph 98% 0 in
10:26 47.3 °F 48.2 °F 29.8 in Calm   4 mph 98% 0 in
10:31 47.8 °F 48.2 °F 29.8 in West 4 mph 4 mph 98% 0 in
10:36 47.8 °F 48.2 °F 29.8 in WSW 4.3 mph 5.8 mph 98% 0 in
10:41 47.8 °F 48.2 °F 29.8 in WSW 4.3 mph 6 mph 98% 0 in
10:46 48 °F 48.2 °F 29.8 in WSW 3.8 mph 6.3 mph 98% 0 in
10:51 48.2 °F 48.2 °F 29.8 in WSW 3.4 mph 6.5 mph 98% 0 in
10:56 48.4 °F 48.2 °F 29.8 in Calm   6.5 mph 98% 0 in
11:01 48.6 °F 48.2 °F 29.8 in WSW 4.3 mph 6.5 mph 98% 0 in
11:06 48.6 °F 48.2 °F 29.8 in WSW 6.3 mph 8.1 mph 98% 0 in
11:11 48.9 °F 48.2 °F 29.8 in WSW 5.4 mph 8.1 mph 98% 0 in
11:16 48.9 °F 48.2 °F 29.8 in WSW 4.9 mph 6 mph 98% 0 in
11:21 49.8 °F 50 °F 29.8 in WSW 3.6 mph 6 mph 98% 0 in
11:26 50 °F 50 °F 29.9 in WSW 1.1 mph 6 mph 98% 0 in
11:31 50 °F 50 °F 29.9 in WSW 6 mph 6.3 mph 98% 0 in
11:36 50 °F 50 °F 29.9 in Calm   6.3 mph 98% 0 in
11:41 50 °F 50 °F 29.9 in WSW 6.5 mph 6.9 mph 98% 0 in
11:47 50 °F 50 °F 29.9 in WSW 4.7 mph 6.9 mph 98% 0 in
11:52 50.9 °F 51.8 °F 29.9 in WSW 4.3 mph 7.6 mph 98% 0 in
11:57 50.9 °F 51.8 °F 29.9 in West 4 mph 7.6 mph 98% 0 in
12:02 50.9 °F 51.8 °F 29.9 in WSW 4.3 mph 7.4 mph 98% 0 in
12:07 50.9 °F 51.8 °F 29.9 in WSW 3.6 mph 7.4 mph 98% 0 in
12:12 52 °F 51.8 °F 29.9 in WSW 4.9 mph 6.5 mph 96% 0 in
12:17 52 °F 51.8 °F 29.9 in WSW 2.9 mph 5.8 mph 96% 0 in
12:23 52.9 °F 51.8 °F 29.9 in WSW 5.6 mph 7.4 mph 95% 0 in
12:28 52.9 °F 51.8 °F 29.9 in WSW 5.8 mph 7.4 mph 93% 0 in
12:33 53.1 °F 50 °F 29.9 in WSW 4.5 mph 7.4 mph 92% 0 in
12:38 53.1 °F 50 °F 29.9 in WSW 5.6 mph 7.6 mph 91% 0 in
12:43 53.4 °F 50 °F 29.9 in WSW 5.6 mph 7.6 mph 89% 0 in
12:48 53.6 °F 50 °F 29.9 in WSW 6.3 mph 8.1 mph 88% 0 in
12:53 54 °F 50 °F 29.9 in West 8.1 mph 8.5 mph 88% 0 in
12:58 54.1 °F 50 °F 29.9 in SW 6 mph 8.5 mph 86% 0 in
13:03 54.1 °F 50 °F 29.9 in WSW 4.3 mph 8.1 mph 86% 0 in
13:05 54.1 °F 50 °F 29.9 in Calm   8.1 mph 86% 0 in
13:10 54.5 °F 50 °F 29.9 in WSW 1.6 mph 8.1 mph 84% 0 in
13:15 54.3 °F 50 °F 29.9 in WSW 6.3 mph 7.8 mph 84% 0 in
13:20 54.3 °F 50 °F 29.9 in WSW 5.6 mph 7.8 mph 84% 0 in
13:25 53.4 °F 48.2 °F 29.9 in WSW 6 mph 7.6 mph 83% 0 in
13:30 53.4 °F 48.2 °F 29.9 in SW 4.5 mph 7.8 mph 83% 0 in
13:35 53.4 °F 48.2 °F 29.9 in WSW 6.3 mph 7.8 mph 83% 0 in
13:41 53.4 °F 48.2 °F 29.9 in Calm   6.3 mph 83% 0 in
13:46 52.3 °F 48.2 °F 29.9 in WSW 4.9 mph 5.6 mph 85% 0 in
13:51 52.2 °F 48.2 °F 29.9 in West 4 mph 6 mph 85% 0 in
13:56 51.6 °F 48.2 °F 29.9 in WSW 4.3 mph 6.3 mph 85% 0 in
14:01 51.3 °F 48.2 °F 29.9 in West 3.8 mph 6.3 mph 85% 0 in
14:06 51.1 °F 48.2 °F 29.9 in West 4 mph 6 mph 85% 0 in
14:11 50.7 °F 46.4 °F 29.9 in West 3.8 mph 6.5 mph 85% 0 in
14:16 50.5 °F 46.4 °F 29.9 in Calm   6.5 mph 86% 0 in
14:21 50.4 °F 46.4 °F 29.9 in WSW 4.3 mph 6.5 mph 86% 0 in
14:26 50 °F 46.4 °F 29.9 in WSW 6.3 mph 6.5 mph 88% 0 in
14:31 49.5 °F 46.4 °F 29.9 in Calm   10.3 mph 88% 0.01 in
14:36 49.1 °F 46.4 °F 29.9 in West 4 mph 10.3 mph 89% 0.01 in
14:41 48.9 °F 46.4 °F 29.9 in West 2.7 mph 4 mph 89% 0.01 in
14:46 48.9 °F 46.4 °F 29.9 in Calm   4 mph 90% 0.01 in
14:51 48.9 °F 46.4 °F 29.9 in Calm   3.4 mph 91% 0.01 in
14:56 48.9 °F 46.4 °F 29.9 in Calm     92% 0.01 in
15:01 48.9 °F 46.4 °F 29.9 in Calm   2.9 mph 92% 0.01 in
15:06 48.9 °F 48.2 °F 29.9 in Calm   3.1 mph 93% 0.01 in
15:11 49.1 °F 48.2 °F 29.9 in Calm   3.8 mph 93% 0.01 in
15:17 49.1 °F 48.2 °F 29.9 in WSW 3.1 mph 5.8 mph 93% 0.01 in
15:22 48.9 °F 48.2 °F 29.9 in WSW 4.3 mph 5.8 mph 93% 0.01 in
15:27 48.9 °F 48.2 °F 29.9 in Calm   4.3 mph 94% 0.01 in
15:32 49.1 °F 48.2 °F 29.9 in West 3.1 mph 4.3 mph 94% 0 in
15:37 49.1 °F 48.2 °F 29.9 in Calm   4 mph 94% 0 in
15:42 49.1 °F 48.2 °F 29.9 in Calm   4 mph 94% 0 in
15:47 48.9 °F 48.2 °F 29.9 in Calm   2.9 mph 94% 0 in
15:52 48.7 °F 48.2 °F 29.9 in Calm   4.7 mph 94% 0 in
15:57 48.7 °F 48.2 °F 29.9 in Calm   4.7 mph 94% 0 in
16:02 48.7 °F 48.2 °F 29.9 in Calm   3.6 mph 94% 0 in
16:07 48.6 °F 48.2 °F 29.9 in West 1.1 mph 3.4 mph 94% 0 in
16:12 48.6 °F 48.2 °F 29.9 in Calm   3.6 mph 95% 0 in
16:17 48.4 °F 48.2 °F 29.9 in Calm   3.6 mph 95% 0 in
16:22 48.4 °F 48.2 °F 29.9 in Calm   1.6 mph 95% 0 in
16:27 48.2 °F 48.2 °F 29.9 in Calm   3.1 mph 95% 0 in
16:32 48.2 °F 48.2 °F 29.9 in Calm   3.1 mph 95% 0.01 in
16:37 48 °F 48.2 °F 29.9 in Calm     96% 0.02 in
16:42 47.8 °F 48.2 °F 29.9 in Calm     96% 0.02 in
16:47 47.8 °F 48.2 °F 29.9 in Calm     96% 0.03 in
16:52 47.8 °F 48.2 °F 29.9 in Calm     96% 0.06 in
16:57 47.7 °F 48.2 °F 29.9 in WSW 5.8 mph 6.3 mph 96% 0.07 in
17:02 47.5 °F 48.2 °F 29.9 in West 4 mph 6.3 mph 96% 0.07 in
17:07 47.5 °F 48.2 °F 29.9 in Calm   6.3 mph 97% 0.09 in
17:13 47.1 °F 46.4 °F 29.9 in North 2.5 mph 6.3 mph 97% 0.09 in
17:18 46.8 °F 46.4 °F 29.9 in North 4 mph 6.3 mph 97% 0.1 in
17:23 46.4 °F 46.4 °F 29.9 in NNW 3.8 mph 4 mph 97% 0.11 in
17:28 46.2 °F 46.4 °F 29.8 in Calm   4.3 mph 97% 0.12 in
17:33 46.2 °F 46.4 °F 29.8 in Calm   4.3 mph 97% 0.12 in
17:38 45.9 °F 46.4 °F 29.8 in NNW 2 mph 3.6 mph 98% 0.11 in
17:43 45.9 °F 46.4 °F 29.9 in Calm   3.6 mph 98% 0.12 in
17:48 45.7 °F 46.4 °F 29.9 in Calm   3.6 mph 98% 0.11 in
17:53 45.5 °F 46.4 °F 29.9 in Calm   3.1 mph 98% 0.1 in
17:58 45.5 °F 46.4 °F 29.9 in Calm   2.9 mph 98% 0.1 in
18:03 45.5 °F 46.4 °F 29.9 in Calm   3.1 mph 98% 0.1 in
18:08 45.3 °F 44.6 °F 29.9 in Calm   3.1 mph 98% 0.1 in
18:13 45.3 °F 44.6 °F 29.9 in NNW 1.6 mph 3.6 mph 98% 0.11 in
18:18 45.3 °F 44.6 °F 29.9 in North 3.1 mph 3.6 mph 98% 0.11 in
18:23 45.1 °F 44.6 °F 29.9 in North 2.7 mph 4 mph 98% 0.1 in
18:28 45 °F 44.6 °F 29.9 in Calm   4 mph 98% 0.1 in
18:33 44.8 °F 44.6 °F 29.9 in North 3.1 mph 4 mph 98% 0.09 in
18:38 44.6 °F 44.6 °F 29.9 in Calm   3.8 mph 98% 0.1 in
18:43 44.4 °F 44.6 °F 29.9 in Calm   2.7 mph 98% 0.09 in
18:48 44.2 °F 44.6 °F 29.9 in Calm   2 mph 98% 0.07 in
18:53 44.2 °F 44.6 °F 29.9 in Calm   1.1 mph 98% 0.07 in
18:58 44.2 °F 44.6 °F 29.9 in Calm     98% 0.07 in
19:03 44.2 °F 44.6 °F 29.9 in Calm   0.9 mph 98% 0.06 in
19:08 44.1 °F 44.6 °F 29.9 in Calm   0.9 mph 98% 0.07 in
19:10 44.1 °F 44.6 °F 29.9 in Calm     98% 0.06 in
19:15 44.1 °F 44.6 °F 29.9 in Calm   1.3 mph 98% 0.06 in
19:21 43.9 °F 44.6 °F 29.9 in Calm   1.3 mph 98% 0.06 in
19:22 43.9 °F 44.6 °F 29.9 in Calm     98% 0.06 in
19:27 43.9 °F 44.6 °F 29.9 in Calm     98% 0.05 in
19:32 43.9 °F 44.6 °F 29.9 in Calm     98% 0.05 in
19:37 43.9 °F 44.6 °F 29.9 in Calm     98% 0.03 in
19:42 43.9 °F 44.6 °F 29.9 in Calm     98% 0.05 in
19:47 44.1 °F 44.6 °F 29.9 in Calm     98% 0.05 in
19:52 44.1 °F 44.6 °F 29.9 in Calm   2.5 mph 98% 0.05 in
19:57 44.1 °F 44.6 °F 29.9 in Calm   2.5 mph 98% 0.03 in
20:02 44.1 °F 44.6 °F 29.9 in Calm   0.9 mph 98% 0.03 in
20:07 43.9 °F 44.6 °F 29.9 in Calm     98% 0.02 in
20:12 43.7 °F 44.6 °F 29.9 in Calm   2.7 mph 98% 0.02 in
20:17 43.7 °F 44.6 °F 29.9 in Calm   3.1 mph 98% 0.02 in
20:22 43.7 °F 44.6 °F 29.9 in Calm   3.4 mph 98% 0.01 in
20:27 43.5 °F 42.8 °F 29.9 in North 3.1 mph 4.3 mph 98% 0.02 in
20:32 43.5 °F 42.8 °F 29.9 in Calm   4.3 mph 98% 0.02 in
20:37 43.5 °F 42.8 °F 29.9 in Calm   3.8 mph 98% 0.02 in
20:42 43.5 °F 42.8 °F 29.9 in Calm   3.8 mph 98% 0.01 in
20:47 43.3 °F 42.8 °F 29.9 in Calm     98% 0.01 in
20:52 43.3 °F 42.8 °F 29.9 in NNE 3.8 mph 4.3 mph 98% 0.01 in
20:57 43 °F 42.8 °F 29.9 in NNE 3.6 mph 6.5 mph 98% 0.01 in
21:02 43 °F 42.8 °F 29.9 in NNW 2.5 mph 6.5 mph 98% 0.01 in
21:07 42.8 °F 42.8 °F 29.9 in NNW 2.9 mph 4.7 mph 98% 0.02 in
21:08 42.8 °F 42.8 °F 29.9 in Calm   3.8 mph 98% 0.02 in
21:13 42.8 °F 42.8 °F 29.9 in Calm   4.3 mph 98% 0.02 in
21:18 42.6 °F 42.8 °F 29.9 in NNW 2 mph 4.3 mph 98% 0.04 in
21:23 42.6 °F 42.8 °F 29.9 in Calm   4 mph 98% 0.04 in
21:28 42.6 °F 42.8 °F 29.9 in Calm   4.3 mph 98% 0.03 in
21:33 42.4 °F 42.8 °F 29.9 in NE 1.6 mph 6.3 mph 98% 0.03 in
21:38 42.4 °F 42.8 °F 29.9 in NNE 4.9 mph 6.3 mph 98% 0.03 in
21:43 42.4 °F 42.8 °F 29.9 in NE 2.7 mph 5.8 mph 98% 0.03 in
21:48 42.4 °F 42.8 °F 29.9 in Calm   5.4 mph 98% 0.03 in
21:53 42.4 °F 42.8 °F 29.9 in Calm   5.4 mph 98% 0.03 in
21:58 42.4 °F 42.8 °F 29.8 in Calm   5.8 mph 98% 0.03 in
22:03 42.4 °F 42.8 °F 29.8 in Calm   5.8 mph 98% 0.01 in
22:08 42.4 °F 42.8 °F 29.8 in Calm   2 mph 98% 0.01 in
22:13 42.4 °F 42.8 °F 29.9 in SSE 3.1 mph 3.1 mph 98% 0.01 in
22:19 42.6 °F 42.8 °F 29.9 in Calm   3.1 mph 98% 0 in
22:24 42.6 °F 42.8 °F 29.9 in Calm   6.3 mph 98% 0 in
22:29 42.6 °F 42.8 °F 29.8 in Calm   6.3 mph 98% 0 in
22:34 42.6 °F 42.8 °F 29.8 in Calm   5.8 mph 98% 0 in
22:39 42.6 °F 42.8 °F 29.8 in Calm   3.8 mph 98% 0 in
22:44 42.6 °F 42.8 °F 29.9 in Calm     98% 0 in
22:49 42.6 °F 42.8 °F 29.9 in Calm     98% 0 in
22:54 42.6 °F 42.8 °F 29.9 in Calm     98% 0 in
22:59 42.4 °F 42.8 °F 29.9 in Calm   2.5 mph 98% 0 in
23:04 42.4 °F 42.8 °F 29.9 in Calm   2.5 mph 98% 0 in
23:09 42.4 °F 42.8 °F 29.9 in Calm   2 mph 98% 0 in
23:14 42.3 °F 42.8 °F 29.9 in Calm   2.7 mph 98% 0 in
23:19 42.3 °F 42.8 °F 29.9 in Calm   3.1 mph 98% 0 in
23:24 42.3 °F 42.8 °F 29.9 in SE 1.3 mph 4.7 mph 98% 0 in
23:29 42.3 °F 42.8 °F 29.9 in Calm   4.7 mph 98% 0 in
23:34 42.3 °F 42.8 °F 29.9 in Calm   4.7 mph 98% 0 in
23:39 42.1 °F 42.8 °F 29.9 in Calm   2.5 mph 98% 0 in
23:44 42.1 °F 42.8 °F 29.8 in Calm     98% 0 in
23:49 41.9 °F 42.8 °F 29.8 in Calm     98% 0 in
23:54 41.7 °F 42.8 °F 29.8 in Calm     98% 0 in
23:59 41.5 °F 42.8 °F 29.9 in Calm     98% 0 in
Données Historique de Météo Turbie

Mise a jour : 24/05/2018 10:22:14
Généré par Cumulus 1.9.4 (1099)